Topeka Forbes, KS

3:23 PM CDT on September 26, 2017 (GMT -0500)
Forbes

Weather History for KFOE - January, 2013

Change the Weather History Date:

Thursday, January 24, 2013

  Actual Average Record
Temperature  
Mean Temperature 18 °F -  
Max Temperature 26 °F 42 °F 72 °F (1981)
Min Temperature 10 °F 20 °F -7 °F (1963)
Degree Days  
Heating Degree Days 47    
Moisture  
Dew Point 5 °F    
Average Humidity 51    
Maximum Humidity 71    
Minimum Humidity 37    
Precipitation  
Precipitation 0.00 in - - ()
Sea Level Pressure  
Sea Level Pressure 30.36 in    
Wind  
Wind Speed 9 mph (ENE)    
Max Wind Speed 14 mph    
Max Gust Speed 17 mph    
Visibility 10 miles    
Events      
Averages and records for this station are not official NWS values.
T = Trace of Precipitation, MM = Missing Value Source: NWS Daily Summary

Daily Weather History Graph

Daily Weather History Graph

Search for Another Location

Airport or City:

Trip Planner

Search our weather history database for the weather conditions in past years. The results will help you decide how hot, cold, wet, or windy it might be!

Date:

Astronomy

Jan. 24, 2013 Rise Set
Actual Time 7:35 AM CST 5:35 PM CST
Civil Twilight 7:06 AM CST 6:03 PM CST
Nautical Twilight 6:34 AM CST 6:36 PM CST
Astronomical Twilight 6:02 AM CST 7:07 PM CST
Moon 3:38 PM CST (1/24) 5:33 AM CST (1/24)
Length of Visible Light 10h 57m
Length of Day
10h 00m
Waxing Gibbous, 94% of the Moon is Illuminated
Jan 24
Waxing Gibbous
Jan 26
Full
Feb 3
Last Quarter
Feb 10
New
Feb 17
First Quarter

Hourly Weather History & Observations

Time (CST) Temp. Windchill Dew Point Humidity Pressure Visibility Wind Dir Wind Speed Gust Speed Precip Events Conditions
12:53 AM 21.9 °F 11.0 °F 12.9 °F 68% 30.45 in 10.0 mi North 10.4 mph - N/A   Clear
1:53 AM 19.9 °F 7.3 °F 12.0 °F 71% 30.46 in 10.0 mi North 12.7 mph - N/A   Clear
2:53 AM 19.0 °F 8.2 °F 10.0 °F 68% 30.46 in 10.0 mi NNE 9.2 mph - N/A   Clear
3:53 AM 17.1 °F 6.6 °F 6.1 °F 62% 30.47 in 10.0 mi NE 8.1 mph - N/A   Clear
4:53 AM 15.1 °F 3.3 °F 3.0 °F 59% 30.47 in 10.0 mi NE 9.2 mph - N/A   Clear
5:53 AM 14.0 °F 2.9 °F 3.0 °F 62% 30.45 in 10.0 mi NE 8.1 mph - N/A   Clear
6:53 AM 12.0 °F -0.4 °F 1.9 °F 64% 30.49 in 10.0 mi NE 9.2 mph - N/A   Clear
7:53 AM 10.9 °F -1.8 °F 1.9 °F 67% 30.50 in 10.0 mi ENE 9.2 mph - N/A   Clear
8:53 AM 12.0 °F -1.3 °F 1.9 °F 64% 30.49 in 10.0 mi ENE 10.4 mph - N/A   Clear
9:53 AM 15.1 °F 0.5 °F 1.0 °F 54% 30.51 in 10.0 mi ENE 13.8 mph - N/A   Clear
10:53 AM 17.1 °F 7.6 °F 1.0 °F 50% 30.50 in 10.0 mi ENE 6.9 mph - N/A   Clear
11:53 AM 19.9 °F 7.9 °F 1.0 °F 44% 30.45 in 10.0 mi ENE 11.5 mph - N/A   Clear
12:53 PM 23.0 °F 11.7 °F 1.0 °F 39% 30.38 in 10.0 mi East 11.5 mph 17.3 mph N/A   Clear
1:53 PM 24.1 °F 14.4 °F 3.0 °F 40% 30.35 in 10.0 mi ESE 9.2 mph - N/A   Clear
2:53 PM 26.1 °F 17.6 °F 3.0 °F 37% 30.31 in 10.0 mi East 8.1 mph - N/A   Clear
3:53 PM 26.1 °F 16.8 °F 3.0 °F 37% 30.28 in 10.0 mi East 9.2 mph - N/A   Overcast
4:53 PM 26.1 °F 16.2 °F 3.9 °F 39% 30.27 in 10.0 mi East 10.4 mph - N/A   Overcast
5:26 PM 26.6 °F 17.5 °F 3.2 °F 37% 30.20 in 10.0 mi East 9.2 mph - N/A   Overcast
5:53 PM 26.1 °F 16.2 °F 5.0 °F 41% 30.23 in 10.0 mi East 10.4 mph - N/A   Overcast
6:53 PM 26.1 °F 17.6 °F 6.1 °F 43% 30.23 in 10.0 mi East 8.1 mph - N/A   Overcast
7:53 PM 26.1 °F 19.4 °F 7.0 °F 44% 30.25 in 10.0 mi ESE 5.8 mph - N/A   Overcast
8:53 PM 26.1 °F 19.4 °F 8.1 °F 47% 30.22 in 10.0 mi ESE 5.8 mph - N/A   Overcast
9:53 PM 26.1 °F 21.9 °F 8.1 °F 47% 30.22 in 10.0 mi East 3.5 mph - N/A   Overcast
10:53 PM 26.1 °F 21.9 °F 9.0 °F 49% 30.20 in 10.0 mi ESE 3.5 mph - N/A   Overcast
11:53 PM 26.1 °F - 9.0 °F 49% 30.22 in 10.0 mi Calm Calm - N/A   Overcast